Flag Weather past 2 weeks in Haltern am See, North Rhine-Westphalia, Germany

Now
39 °F

Passing clouds.


Feels Like: 39 °F
Forecast: 46 / 56 °F
Wind: 2 mph from East

Location: Muenster / Osnabrueck

Current Time: Nov 22, 2014 at 4:26:58 AM

Latest Report: Nov 22, 2014 at 4:00 AM


Visibility: 13 mi

Pressure: 30.12 "Hg

Humidity: 86%

Dew point: 35 °F

Location of Haltern am SeeLocation

Historic Weather in Haltern am See — Graph

°F

Haltern am See temperature yesterday

Maximum temperature yesterday: 48 °F (at 2:00 PM)
Minimum temperature yesterday: 37 °F (at 1:00 AM)
Average temperature yesterday: 42 °F

Past Weeks' High & Low Weather Summary

 TemperatureHumidityPressure
High56 °F (Nov 8, 2:00 PM)100% (Nov 13, 12:00 AM)30.37 "Hg (Nov 13, 12:00 AM)
Low37 °F (Nov 7, 8:00 AM)58% (Nov 8, 3:00 PM)29.47 "Hg (Nov 16, 1:00 PM)
Average47 °F87%29.85 "Hg
* Reported Nov 7 3:00 AM — Nov 22 3:00 AM, Haltern am See, Weather by CustomWeather, © 2014

Note: Actual official high and low records may vary slightly from our data, if they occured in-between our weather recording intervals... More about our weather records

Advertising

Haltern am See weather history for previous 24 hours

 ConditionsComfort  
Time TempWeatherWind HumidityBarometerVisibility
3:00 AM
Nov 22
39 °FPassing clouds.1 mph87%30.13 "Hg12 mi
2:00 AM40 °FPassing clouds.2 mph86%30.14 "Hg12 mi
1:00 AM40 °FPassing clouds.2 mph85%30.15 "Hg12 mi
12:00 AM41 °FPassing clouds.2 mph83%30.17 "Hg12 mi
11:00 PM
Nov 21
42 °FPassing clouds.2 mph82%30.17 "Hg12 mi
10:00 PM42 °FOvercast.2 mph81%30.18 "Hg12 mi
9:00 PM41 °FPassing clouds.2 mph83%30.18 "Hg12 mi
8:00 PM41 °FClear.2 mph84%30.19 "Hg12 mi
7:00 PM42 °FPassing clouds.2 mph81%30.19 "Hg16 mi
6:00 PM43 °FPassing clouds.2 mph78%30.19 "Hg9 mi
5:00 PM45 °FOvercast.2 mph73%30.19 "Hg12 mi
4:00 PM45 °FPartly sunny.2 mph71%30.20 "Hg12 mi
3:00 PM47 °FPartly sunny.3 mph68%30.21 "Hg12 mi
2:00 PM48 °FPartly sunny.2 mph70%30.22 "Hg16 mi
1:00 PM47 °FScattered clouds.3 mph69%30.24 "Hg19 mi
12:00 PM46 °FScattered clouds.3 mph72%30.26 "Hg16 mi
11:00 AM44 °FPassing clouds.2 mph78%30.28 "Hg16 mi
10:00 AM42 °FPassing clouds.2 mph79%30.27 "Hg16 mi
9:00 AM40 °FPassing clouds.1 mph84%30.28 "Hg16 mi
8:00 AM41 °FPassing clouds.1 mph81%30.28 "Hg16 mi
7:00 AM42 °FOvercast.2 mph76%30.27 "Hg12 mi
6:00 AM42 °FOvercast.2 mph80%30.29 "Hg9 mi
5:00 AM42 °FOvercast.1 mph82%30.30 "Hg9 mi
4:00 AM40 °FOvercast.2 mph84%30.31 "Hg8 mi
Weather by CustomWeather, © 2014

See weather overviewHow to use our weather pages